www.pogodaiklimat.ru

Погода и климат >> Архив погоды >> Австрия >> Гумпольдскирхен


ПОГОДА в Гумпольдскирхене

  • Прогноз погоды в Гумпольдскирхене
  • Монитор погоды в Гумпольдскирхене

АРХИВ ПОГОДЫ в Гумпольдскирхене

Время (UTC), дата Ветер
(напр.,м/с)
 
Видим.   Явления Облачность Т
(С)
Тd
(С)
f
(%)
Тe
(С)
Тes
(С)
Комфортность P
(гПа)
Po
(гПа)
Тmin
(С)
Tmax
(С)
R
(мм)
R24
(мм)
S
(см)
19 10.06 ЮВ 4 н/о н/о +25.9 +18.2 63 +31 +31 очень
душно
1012.3 987.3
20 10.06 ЮВ 4 н/о н/о +24.8 +18.1 66 +29 +29 душно 1012.7 987.6
21 10.06 ЮВ 3 н/о н/о +24.6 +17.5 65 +29 +29 душно 1012.5 987.4
22 10.06 ЮЗ 2 н/о н/о +22.6 +17.3 72 +27 +27 душно 1012.7 987.4
23 10.06 Ю 1 н/о н/о +21.2 +16.9 76 +25 +25 комфорт 1012.8 987.4
00 11.06 Ю 1 н/о н/о +22.3 +16.7 71 +27 +27 душно 1012.2 986.9 0.0
01 11.06 З 2 н/о н/о +21.2 +16.8 76 +25 +25 комфорт 1012.1 986.7
02 11.06 З 1 н/о н/о +20.6 +16.9 79 +25 +25 комфорт 1011.9 986.5
03 11.06 З 1 н/о н/о +19.4 +17.1 87 +23 +23 комфорт 1012.0 986.5
04 11.06 ЮЗ 2 н/о н/о +20.6 +17.7 83 +25 +25 комфорт 1012.0 986.6
05 11.06 ЮЗ 2 н/о н/о +22.2 +18.3 79 +27 +27 душно 1011.9 986.6
06 11.06 ЮЗ 1 н/о н/о +24.3 +19.4 74 +29 +29 душно 1012.1 987.0 +18.8 +27.0 0.0
07 11.06 ЮВ 4 н/о н/о +27.0 +20.1 66 +33 +33 очень
душно
1012.3 987.4
08 11.06 ЮВ 5 н/о н/о +28.1 +19.3 59 +34 +34 очень
душно
1012.2 987.4
09 11.06 ЮВ 5 н/о н/о +29.1 +19.7 57 +35 +35 очень
душно
1012.2 987.5
10 11.06 ЮВ 6 н/о н/о +29.8 +18.6 51 +35 +35 очень
душно
1011.8 987.1
11 11.06 ЮВ 7
{14}
н/о н/о +30.7 +19.5 51 +36 +36 очень
душно
1011.5 986.9
12 11.06 ЮВ 6
{14}
н/о н/о +31.2 +19.1 49 +37 +37 очень
душно
1011.2 986.7
13 11.06 ЮВ 6 н/о н/о +31.3 +18.1 45 +36 +36 очень
душно
1010.8 986.3
14 11.06 ЮВ 6 н/о н/о +31.3 +18.6 47 +36 +36 очень
душно
1010.5 986.0
15 11.06 ЮВ 7 н/о н/о +30.6 +17.6 46 +35 +35 очень
душно
1010.6 986.0
16 11.06 ЮВ 7 н/о н/о +30.0 +17.7 48 +34 +34 очень
душно
1010.4 985.8
17 11.06 ЮВ 4 н/о н/о +28.4 +17.1 50 +32 +32 душно 1011.4 986.6
18 11.06 ЮВ 3
{14}
н/о н/о +27.3 +17.7 56 +32 +32 очень
душно
1011.4 986.5 +23.7 +31.5
19 11.06 ЮВ 1 н/о н/о +26.1 +18.0 61 +31 +31 очень
душно
1011.6 986.6
20 11.06 Ю 3 н/о н/о +25.6 +18.6 65 +30 +30 душно 1012.3 987.3
21 11.06 ЮЗ 2 н/о н/о +23.7 +18.9 74 +28 +28 душно 1012.5 987.3
22 11.06 ЮЗ 3 н/о н/о +23.2 +18.5 75 +29 +29 душно 1012.2 987.0
23 11.06 ЮЗ 2 н/о н/о +22.7 +17.9 74 +28 +28 душно 1011.6 986.4
00 12.06 З 3 н/о н/о +22.2 +17.7 76 +27 +27 душно 1011.0 985.7
01 12.06 ЮЗ 3 н/о н/о +21.7 +17.5 77 +26 +26 душно 1010.8 985.5
02 12.06 З 2 н/о н/о +20.3 +17.0 81 +24 +24 комфорт 1010.5 985.1
03 12.06 ЮЗ 2 н/о н/о +19.5 +15.8 79 +22 +22 комфорт 1011.2 985.7
04 12.06 ЮЗ 3 н/о н/о +20.6 +16.0 75 +24 +24 комфорт 1011.8 986.4
05 12.06 ЮЗ 1 н/о н/о +21.3 +16.1 72 +25 +25 комфорт 1011.8 986.4
06 12.06 ЮЗ 2 н/о н/о +23.5 +16.4 64 +27 +27 душно 1012.0 986.8 +18.8 +27.7
07 12.06 Ю 3 н/о н/о +25.4 +16.7 59 +29 +29 душно 1011.9 986.9
08 12.06 ЮВ 4 н/о н/о +27.8 +16.6 51 +31 +31 душно 1011.7 986.9
09 12.06 ЮВ 7 н/о н/о +29.0 +17.2 49 +33 +33 очень
душно
1011.6 986.9
10 12.06 ЮВ 8
{14}
н/о н/о +30.1 +16.4 44 +33 +33 душно 1011.2 986.6
11 12.06 ЮВ 8
{14}
н/о н/о +30.5 +16.3 42 +34 +34 очень
душно
1011.2 986.6
12 12.06 ЮВ 7
{14}
н/о н/о +30.9 +16.8 43 +34 +34 душно 1010.8 986.2
13 12.06 ЮВ 7 н/о н/о +30.9 +17.5 45 +35 +35 очень
душно
1010.3 985.8
14 12.06 ЮВ 7 н/о н/о +31.1 +17.9 45 +35 +35 очень
душно
1010.2 985.7
15 12.06 ЮВ 8 н/о н/о +30.6 +18.3 48 +35 +35 очень
душно
1009.9 985.4
16 12.06 ЮВ 7 н/о н/о +30.1 +18.3 49 +35 +35 очень
душно
1009.9 985.3
17 12.06 ЮВ 6 н/о н/о +29.1 +18.2 52 +34 +34 очень
душно
1009.8 985.1
18 12.06 ЮВ 5
{14}
н/о н/о +28.0 +19.2 59 +34 +34 очень
душно
1010.0 985.3 +23.1 +31.6
19 12.06 ЮВ 3 н/о н/о +26.8 +19.5 64 +32 +32 очень
душно
1010.5 985.6
20 12.06 Ю 2 н/о н/о +25.2 +19.6 71 +31 +31 очень
душно
1011.4 986.4
21 12.06 ЮЗ 3 н/о н/о +24.2 +19.6 76 +29 +29 душно 1011.8 986.7
22 12.06 З 2 н/о н/о +23.1 +19.2 79 +29 +29 очень
душно
1012.0 986.8
23 12.06 ЮЗ 2 н/о н/о +23.6 +19.1 76 +28 +28 душно 1012.0 986.8
00 13.06 З 2 н/о н/о +22.3 +18.9 81 +28 +28 душно 1011.9 986.6
01 13.06 штиль 0 н/о н/о +21.5 +18.7 84 +26 +26 душно 1011.9 986.6
02 13.06 СЗ 1 н/о н/о +21.2 +18.6 85 +26 +26 душно 1011.9 986.5
03 13.06 СЗ 1 н/о н/о +19.9 +18.3 90 +24 +24 комфорт 1012.3 986.8
04 13.06 З 1 н/о н/о +19.8 +18.3 91 +24 +24 комфорт 1012.8 987.3
05 13.06 Ю 1 н/о н/о +21.8 +18.8 83 +27 +27 душно 1013.0 987.7
06 13.06 В 1 н/о н/о +24.0 +18.3 70 +28 +28 душно 1013.4 988.2 +19.3 +28.1
07 13.06 З 2 н/о н/о +24.1 +17.5 67 +28 +28 душно 1013.7 988.5
08 13.06 СЗ 1 н/о н/о +24.8 +17.2 63 +29 +29 душно 1013.8 988.7 0.0
09 13.06 СВ 3 н/о н/о +25.8 +17.1 59 +30 +30 душно 1013.7 988.7 0.0
10 13.06 С 3 н/о н/о +26.9 +17.9 58 +31 +31 душно 1013.6 988.7
11 13.06 В 2 н/о н/о +27.5 +18.2 57 +32 +32 очень
душно
1013.3 988.4
12 13.06 СВ 2 н/о н/о +28.7 +19.6 58 +35 +35 очень
душно
1012.4 987.7 0.0
13 13.06 В 4 н/о н/о +30.0 +21.0 59 +38 +38 очень
душно
1011.9 987.3
14 13.06 В 4 н/о н/о +31.1 +21.4 56 +39 +39 очень
душно
1011.3 986.8
15 13.06 СВ 2 н/о н/о +29.9 +21.4 60 +38 +38 очень
душно
1010.6 986.0 0.0
16 13.06 ЮВ 6 н/о н/о +30.2 +16.9 45 +34 +34 очень
душно
1010.6 986.0
17 13.06 ЮВ 6 н/о н/о +30.7 +16.3 42 +34 +34 очень
душно
1010.4 985.8
18 13.06 ЮВ 4 н/о н/о +29.2 +15.6 44 +32 +32 душно 1010.4 985.7 +23.3 +31.3 0.0
19 13.06 ЮЗ 3 н/о н/о +26.9 +16.1 52 +30 +30 душно 1010.8 985.9
20 13.06 З 2 н/о н/о +23.4 +16.3 64 +28 +28 душно 1012.0 986.8
21 13.06 З 1 н/о н/о +21.8 +16.2 70 +26 +26 душно 1012.7 987.3
22 13.06 З 1 н/о н/о +21.9 +16.0 69 +26 +26 душно 1013.4 988.0
23 13.06 З 3 н/о н/о +25.0 +18.6 68 +30 +30 душно 1013.7 988.6 0.0
00 14.06 З 8
{14}
н/о н/о +24.9 +16.4 59 +28 +28 жарко 1013.8 988.7 0.0
01 14.06 З 11
{18}
н/о н/о +24.3 +15.6 58 +27 +27 жарко 1013.2 988.0
02 14.06 З 12
{19}
н/о н/о +23.9 +15.3 59 +27 +27 жарко 1014.4 989.2
03 14.06 СЗ 4
{19}
н/о н/о +22.7 +16.8 69 +27 +27 душно 1016.4 991.0
04 14.06 СЗ 1 н/о н/о +22.8 +17.1 70 +28 +28 душно 1017.4 992.0 0.0
05 14.06 З 1 н/о н/о +23.4 +17.5 69 +29 +29 душно 1017.6 992.3 0.0
06 14.06 З 1
{19}
н/о н/о +24.1 +17.7 67 +28 +28 душно 1018.0 992.7 +20.8 +29.6 0.0
07 14.06 СЗ 2 н/о н/о +25.1 +17.7 64 +29 +29 душно 1018.7 993.5
08 14.06 СЗ 3 н/о н/о +26.0 +18.4 63 +31 +31 очень
душно
1018.7 993.6 0.0
09 14.06 СЗ 3 н/о н/о +27.5 +18.4 58 +32 +32 очень
душно
1018.6 993.6 0.0
10 14.06 С 3 н/о н/о +28.2 +18.5 56 +33 +33 очень
душно
1018.6 993.6
11 14.06 С 3 н/о н/о +29.3 +16.9 47 +33 +33 душно 1018.4 993.5
12 14.06 В 3 н/о н/о +30.8 +15.7 40 +33 +33 душно 1018.0 993.2 0.0
13 14.06 В 2 н/о н/о +31.0 +16.7 42 +34 +34 душно 1017.4 992.7
14 14.06 В 2 н/о н/о +31.4 +16.8 42 +35 +35 очень
душно
1017.1 992.4
15 14.06 В 3 н/о н/о +31.4 +18.1 45 +36 +36 очень
душно
1016.5 991.9
16 14.06 В 4 н/о н/о +31.2 +18.1 46 +36 +36 очень
душно
1016.2 991.5
17 14.06 ЮВ 4 н/о н/о +30.3 +18.2 48 +35 +35 очень
душно
1015.9 991.2
18 14.06 В 4 н/о н/о +29.1 +19.0 54 +34 +34 очень
душно
1016.0 991.2 +23.7 +31.7 0.0
19 14.06 ЮВ 1 н/о н/о +27.1 +19.3 62 +33 +33 очень
душно
1016.0 991.0
20 14.06 штиль 0 н/о н/о +25.1 +19.2 70 +30 +30 душно 1016.3 991.2
21 14.06 ЮЗ 1 н/о н/о +24.8 +18.9 70 +30 +30 душно 1016.1 990.9
22 14.06 ЮЗ 1 н/о н/о +23.1 +19.0 78 +29 +29 очень
душно
1016.0 990.7
23 14.06 ЮЗ 2 н/о н/о +22.2 +18.6 80 +27 +27 душно 1015.8 990.4
00 15.06 ЮЗ 3 н/о н/о +22.4 +17.9 76 +27 +27 душно 1015.4 990.0
01 15.06 ЮЗ 3 н/о н/о +22.5 +17.2 72 +27 +27 душно 1014.9 989.6
02 15.06 ЮЗ 3 н/о н/о +20.1 +16.4 79 +23 +23 комфорт 1014.8 989.2
03 15.06 ЮЗ 3 н/о н/о +22.4 +16.6 70 +27 +27 душно 1014.2 988.9 0.0
04 15.06 ЮЗ 3 н/о н/о +23.4 +17.2 68 +29 +29 душно 1014.1 988.8 0.0
05 15.06 ЮЗ 3 н/о н/о +23.9 +17.3 67 +28 +28 душно 1013.8 988.6 0.0
06 15.06 ЮЗ 3 н/о н/о +24.6 +17.6 65 +29 +29 душно 1013.8 988.7 +20.1 +29.4 0.0
07 15.06 Ю 3 н/о н/о +27.5 +17.6 55 +32 +32 очень
душно
1013.4 988.5 0.0
08 15.06 Ю 4 н/о н/о +27.8 +17.7 54 +32 +32 душно 1013.6 988.7
09 15.06 ЮВ 5 н/о н/о +29.0 +17.7 51 +33 +33 очень
душно
1013.4 988.6 0.0
10 15.06 ЮВ 3 н/о н/о +31.2 +18.2 46 +36 +36 очень
душно
1012.6 988.0
11 15.06 В 5 н/о н/о +31.9 +17.7 43 +36 +36 очень
душно
1012.3 987.8
12 15.06 ЮВ 4 н/о н/о +31.7 +17.8 44 +36 +36 очень
душно
1012.1 987.6 0.0
13 15.06 Ю 1 н/о н/о +31.7 +18.2 45 +36 +36 очень
душно
1011.8 987.3
14 15.06 ЮЗ 1 н/о н/о +31.6 +20.5 52 +39 +39 очень
душно
1011.5 987.0 0.0
15 15.06 ЮВ 3 н/о н/о +32.1 +18.2 44 +37 +37 очень
душно
1011.2 986.7 0.0
16 15.06 ЮВ 4 н/о н/о +31.7 +16.8 41 +35 +35 очень
душно
1010.4 985.9
17 15.06 Ю 1 н/о н/о +31.3 +17.3 43 +35 +35 очень
душно
1010.1 985.6
18 15.06 З 1 н/о н/о +29.1 +18.7 53 +34 +34 очень
душно
1010.3 985.6 +24.4 +33.0 0.0
19 15.06 ЮЗ 2 н/о н/о +27.4 +19.5 62 +33 +33 очень
душно
1010.8 986.0
20 15.06 З 7 н/о н/о +26.7 +15.5 50 +30 +30 душно 1012.0 987.1 0.0
21 15.06 З 9
{14}
н/о н/о +26.4 +15.1 50 +29 +29 жарко 1012.0 987.0 0.0
22 15.06 З 10
{16}
н/о н/о +25.8 +15.1 52 +29 +29 душно 1012.1 987.1
23 15.06 Ю 1
{15}
н/о н/о +24.1 +15.4 58 +27 +27 жарко 1013.3 988.1 0.0
00 16.06 штиль 0
{16}
н/о н/о +23.1 +15.7 63 +27 +27 душно 1013.8 988.5 0.0
01 16.06 Ю 2 н/о н/о +22.4 +15.7 66 +26 +26 жарко 1013.7 988.4
02 16.06 Ю 2 н/о н/о +21.8 +15.8 69 +25 +25 комфорт 1013.6 988.2
03 16.06 Ю 2 н/о н/о +21.9 +15.9 69 +26 +26 душно 1013.8 988.4
04 16.06 З 8
{14}
н/о н/о +21.6 +16.1 71 +25 +25 комфорт 1014.0 988.6 0.0
05 16.06 З 11
{18}
н/о н/о +21.7 +16.6 73 +26 +26 душно 1014.4 989.0
06 16.06 З 12
{20}
н/о н/о +22.0 +16.0 69 +26 +26 душно 1014.9 989.5 +20.8 +29.6 0.0
07 16.06 З 12
{20}
н/о н/о +21.4 +15.5 69 +25 +25 комфорт 1015.5 990.0
08 16.06 З 13
{21}
н/о н/о +22.4 +15.9 67 +27 +27 душно 1015.7 990.3
09 16.06 З 12
{21}
н/о н/о +23.3 +15.8 63 +28 +28 душно 1016.6 991.3
10 16.06 З 12
{21}
н/о н/о +23.9 +15.3 59 +27 +27 жарко 1016.9 991.6
11 16.06 З 10
{19}
н/о н/о +24.2 +15.2 57 +27 +27 жарко 1017.5 992.2
12 16.06 З 13
{21}
н/о н/о +23.5 +15.1 59 +26 +26 жарко 1017.5 992.1
13 16.06 З 12
{20}
н/о н/о +23.2 +15.3 61 +27 +27 душно 1017.2 991.8
14 16.06 З 12
{18}
н/о н/о +22.7 +15.6 64 +27 +27 душно 1017.3 991.9
15 16.06 З 9
{20}
н/о н/о +24.2 +15.9 60 +27 +27 жарко 1016.9 991.6
16 16.06 З 7
{15}
н/о н/о +22.8 +15.7 64 +27 +27 душно 1017.6 992.2
17 16.06 З 7 н/о н/о +22.4 +15.5 65 +26 +26 жарко 1018.7 993.2
18 16.06 СЗ 8
{21}
н/о н/о +22.3 +15.7 66 +26 +26 жарко 1018.5 993.0 +21.3 +24.8
19 16.06 СЗ 6
{14}
н/о н/о +22.0 +14.4 62 +25 +25 комфорт 1018.9 993.4
20 16.06 СЗ 4 н/о н/о +21.4 +14.1 63 +24 +24 комфорт 1020.2 994.6
21 16.06 З 3
{14}
н/о н/о +20.7 +15.0 70 +24 +24 комфорт 1021.0 995.3
22 16.06 СЗ 2 н/о н/о +20.6 +14.2 67 +24 +24 комфорт 1020.8 995.1
23 16.06 СЗ 2 н/о н/о +20.1 +14.2 69 +23 +23 комфорт 1020.6 994.9
00 17.06 СЗ 3
{14}
н/о н/о +19.8 +14.0 69 +22 +22 комфорт 1021.2 995.4
01 17.06 СЗ 4 н/о н/о +19.7 +13.5 67 +21 +21 комфорт 1020.9 995.1
02 17.06 СЗ 4 н/о н/о +19.3 +13.2 68 +21 +21 комфорт 1020.5 994.7
03 17.06 СЗ 5 н/о н/о +19.0 +13.4 70 +20 +20 1020.7 994.9
04 17.06 СЗ 5 н/о н/о +19.2 +13.2 68 +20 +20 1021.1 995.3
05 17.06 СЗ 4 н/о н/о +19.4 +13.4 68 +21 +21 комфорт 1021.3 995.5
06 17.06 СЗ 4
{14}
н/о н/о +20.2 +13.4 65 +22 +22 комфорт 1020.9 995.2 +18.9 +22.4
07 17.06 СЗ 4 н/о н/о +21.2 +13.6 62 +24 +24 комфорт 1020.8 995.2
08 17.06 СЗ 5 н/о н/о +22.6 +14.1 59 +26 +26 жарко 1020.8 995.3
09 17.06 СЗ 4 н/о н/о +23.4 +14.8 58 +27 +27 душно 1020.7 995.3
10 17.06 С 5 н/о н/о +24.9 +15.2 55 +28 +28 жарко 1020.4 995.1
11 17.06 С 5 н/о н/о +25.1 +14.8 53 +28 +28 жарко 1020.2 994.9 0.0
12 17.06 СВ 4 н/о н/о +24.8 +14.3 52 +27 +27 жарко 1020.1 994.8 0.0
13 17.06 С 4 н/о н/о +25.4 +14.2 50 +28 +28 жарко 1019.8 994.5
15 17.06 С 4 н/о н/о +25.7 +14.6 50 +28 +28 жарко 1018.8 993.6
17 17.06 С 3 н/о н/о +26.0 +14.5 49 +28 +28 жарко 1018.4 993.2
18 17.06 СВ 3 н/о н/о +24.8 +14.5 53 +27 +27 жарко 1018.4 993.1 +20.2 +26.1 0.0

 

Местоположение метеостанции Гумпольдскирхен (Австрия): широта 48.03 долгота 16.28 высота над уровнем моря 233 м.

В архиве по умолчанию представлена погода в Гумпольдскирхене за последнюю неделю. Архивные данные за месяц целиком и за предыдущие месяцы, начиная с января 2011 года, Вы можете получить, выбрав интересующий диапазон дат из раскрывающегося списка и нажав кнопку "Ввод!".


*Определитесь, кто Вы:
робот инопланетянин человек

Внимание! Время в таблицах - всемирное. Для получения местного времени необходимо прибавить поправку, которая равна 1 ч.

Смотрите также архив погоды в соседних городах и на ближайших метеорологических станциях:

Погода в Вене электроподстанция (Австрия) (15 км)
Погода в Зайберсдорфе (Австрия) (17 км)
Погода в Мариябрунн (Австрия) (19 км)
Погода в Вене город (Австрия) (20 км)
Погода в Винер-Нойштадт (Австрия) (23 км)
Погода в Вене аэропорт (Австрия) (24 км)
Погода в Вене (Австрия) (25 км)
Погода в Вене Донауфельд (Австрия) (27 км)
Погода в Айзенштадте (Австрия) (27 км)
Погода в Грос-Энцерсдорфе (Австрия) (29 км)

Пояснения к столбцам:

Ветер - указаны скорость ветра в м/с - средняя за 10 мин, порывы в срок и между сроками (в фигурных скобках) и направление, откуда дует ветер: С - северный, СВ - северо-восточный, В - восточный, ЮВ - юго-восточный, Ю - южный, ЮЗ - юго-западный, З - западный, СЗ - северо-западный.
Видимость - горизонтальная дальность видимости в метрах или километрах. При видимости от 1 до 10 км при отсутствии осадков обычно наблюдается дымка, при ухудшении видимости до 1 км и менее - туман. В сухую погоду видимость может ухудшаться дымом, пылью или мглою.
Явления - указаны атмосферные явления, наблюдавшиеся в срок или в последний час перед сроком; фигурными скобками обозначены явления, наблюдавшиеся между сроками (за 1-3 часа до срока); квадратными скобками обозначены град или гололедные отложения с указанием их диаметра в мм.
Облачность - указаны через наклонную черту общая и нижняя облачность в баллах и высота нижней границы облаков в метрах; квадратными скобками обозначены формы облаков: Ci - перистые, Cs - перисто-слоистые, Cc - перисто-кучевые, Ac - высококучевые, As - высокослоистые, Sc - слоисто-кучевые, Ns - слоисто-дождевые, Cu - кучевые, Cb - кучево-дождевые. Подробнее классификацию облаков см. в Атласе облаков (PDF).
T - Температура воздуха - температура, измеренная на высоте 2 м над землей.
Td - Температура точки росы - температура, при понижении до которой содержащийся в воздухе водяной пар достигнет насыщения.
f - Относительная влажность воздуха - влажноcть воздуха, измеренная на высоте 2 м над землей.
Te - Эффективная температура - температура, которую ощущает одетый по сезону человек в тени. Характеристика душности погоды. При расчете учитывается влияние влажности воздуха и скорости ветра на теплоощущения человека.
Tes - Эффективная температура на солнце - температура, которую ощущает человек, с поправкой на солнечный нагрев. Характеристика знойности погоды. Зависит от высоты солнца над горизонтом, облачности и скорости ветра. Ночью, в пасмурную погоду, а также при ветре 12 м/с и более поправка равна нулю.
P - Атмосферное давление - приведенное к уровню моря атмосферное давление.
Po - Атмосферное давление - измеренное на уровне метеостанции атмосферное давление.
Tmin - Минимальная температура - минимум температуры воздуха на высоте 2 м над землей.
Tmax - Максимальная температура - максимум температуры воздуха на высоте 2 м над землей.
R - Количество осадков - Количество выпавших осадков за период времени, мм. При наведении курсора мыши на число - период времени, за который выпало указанное количество осадков.
R24 - Количество осадков - Количество выпавших осадков за 24 часа, мм.
S - Снежный покров - Высота снежного покрова, см. При наведении курсора мыши на число - состояние снежного покрова и степень покрытия местности в баллах.